www.pogodaiklimat.ru

Погода и климат >> Архив погоды >> Буркина-Фасо >> Ouahigouya


ПОГОДА в Ouahigouya

  • Прогноз погоды в Ouahigouya
  • Монитор погоды в Ouahigouya
  • Климат города

АРХИВ ПОГОДЫ в Ouahigouya

Время (UTC), дата Ветер
(напр.,м/с)
 
Видим.   Явления Облачность Т
(С)
Тd
(С)
f
(%)
Тe
(С)
Тes
(С)
Комфортность P
(гПа)
Po
(гПа)
Тmin
(С)
Tmax
(С)
R
(мм)
R24
(мм)
S
(см)
03 16.10 ЮВ 3 н/о пыль 9/0
[Ci sp]
+26.6 +14.1 46 +29 +29 жарко 1010.9 974.1
06 16.10 СЗ 1 8000 м пыль 9/0
[Ci sp]
+24.4 +16.8 63 +28 +28 душно 1011.6 974.4 +24.4
09 16.10 штиль 0 8000 м пыль 9/0
[Ci sp]
+30.4 +15.7 41 +33 +42 душно 1014.7 977.4
12 16.10 штиль 0 8000 м пыль 9/0
[Ci sp]
+36.1 +13.4 26 +37 +57 опасность
солнечного
удара
1012.5 975.6
15 16.10 ЮВ 3 8000 м пыль 9/0
[Ac As Ci sp]
+38.1 +6.5 15 +36 +40 очень
жарко
1010.2 973.4
18 16.10 ЮВ 2 8000 м пыль 9/0
[Ac trans Ci sp]
+34.8 +7.6 19 +33 +33 жарко 1011.3 974.2 +38.8
21 16.10 В 1 10 км 9/0
[Ci sp]
+28.7 +11.4 34 +29 +29 жарко 1012.8 975.6
00 17.10 штиль 0 10 км 9/0
[Ci sp]
+26.1 +12.4 43 +28 +28 жарко 1012.5 975.5
03 17.10 С 2 10 км 9/0
[Ci sp]
+24.5 +12.6 47 +26 +26 жарко 1011.4 974.4
06 17.10 В 2 8000 м пыль 9/0
[Ac trans Ci sp]
+23.9 +12.0 47 +26 +26 жарко 1012.9 975.7 +23.9
09 17.10 СВ 1 6000 м пыль 9/0
[Ci sp]
+30.8 +11.2 30 +31 +39 жарко 1014.6 977.4
12 17.10 В 4 8000 м пыль 9/0
[Ci sp]
+38.0 +4.2 12 +35 +45 очень
жарко
1012.2 975.3
15 17.10 В 3 8000 м пыль 9/0
[Ci sp]
+38.3 +3.4 12 +35 +42 очень
жарко
1009.9 973.0
18 17.10 ЮВ 1 6000 м пыль 9/0
[Ci sp]
+34.5 +8.5 20 +33 +33 жарко 1011.0 973.9 +39.3
21 17.10 В 1 6000 м пыль 9/0
[Ci sp]
+29.1 +11.0 33 +30 +30 жарко 1012.6 975.4
00 18.10 ЮВ 1 8000 м пыль 9/0
[Ci sp]
+26.5 +10.5 37 +27 +27 жарко 1012.0 975.2
03 18.10 СВ 1 8000 м пыль 9/0
[Ci sp]
+24.6 +11.5 44 +26 +26 жарко 1010.9 974.0
06 18.10 СВ 1 8000 м пыль 9/0
[Ci sp]
+24.7 +9.0 37 +25 +25 комфорт 1011.7 974.5 +24.1
09 18.10 В 1 6000 м пыль 9/0
[Ci sp]
+31.5 +9.3 25 +31 +38 жарко 1012.9 975.8
12 18.10 В 4 8000 м пыль 9/0
[Ci sp]
+37.9 +3.5 12 +35 +45 очень
жарко
1010.8 974.0
15 18.10 СВ 3 10 км 9/0
[Ci sp]
+38.4 +2.0 10 +35 +41 очень
жарко
1008.5 971.7
18 18.10 В 1 8000 м пыль 9/0
[Ci sp]
+34.8 +6.7 18 +33 +33 жарко 1009.2 972.2 +39.4
21 18.10 В 1 8000 м пыль 9/0
[Ci sp]
+29.2 +9.9 30 +29 +29 жарко 1011.5 974.5
00 19.10 ЮВ 1 8000 м пыль 9/0
[Ci sp]
+27.0 +9.5 33 +27 +27 жарко 1011.1 974.3
03 19.10 ЮВ 1 8000 м пыль 9/0
[Ci sp]
+25.0 +9.9 38 +26 +26 жарко 1010.0 973.1
06 19.10 ЮВ 1 8000 м пыль 9/0
[Ci sp]
+24.1 +9.6 40 +25 +25 комфорт 1010.8 973.7 +24.1
09 19.10 ЮЗ 1 8000 м пыль 9/0
[Ci sp]
+30.5 +11.0 30 +31 +38 жарко 1012.8 975.6
12 19.10 ЮВ 2 10 км 9/0
[Ci sp]
+37.5 +5.2 14 +35 +49 очень
жарко
1011.2 974.4
15 19.10 ЮВ 2 10 км 9/0
[Ci sp]
+38.1 +6.5 15 +36 +43 очень
жарко
1008.8 972.0
18 19.10 В 1 8000 м пыль 9/0
[Ci sp]
+34.0 +9.1 22 +33 +33 жарко 1009.4 972.3 +39.1
21 19.10 С 1 8000 м пыль 9/0
[Ci sp]
+29.9 +9.0 27 +29 +29 жарко 1011.5 974.4
00 20.10 ЮВ 1 8000 м пыль 9/0
[Ci sp]
+27.0 +10.5 36 +28 +28 жарко 1010.7 973.9
03 20.10 штиль 0 8000 м пыль 9/0
[Ci sp]
+24.4 +10.5 42 +26 +26 жарко 1009.1 972.3
15 20.10 ЮВ 2 10 км 9/0
[Ci sp]
+38.1 +2.4 11 +35 +42 очень
жарко
1008.5 971.6
18 20.10 В 1 10 км 9/0
[Ci sp]
+34.5 +7.7 19 +33 +33 жарко 1009.6 972.4 +39.0
21 20.10 ЮВ 1 10 км 9/0
[Ci sp]
+29.5 +9.4 29 +29 +29 жарко 1011.5 974.5
00 21.10 В 2 10 км 9/0
[Ci sp]
+28.6 +7.6 27 +28 +28 жарко 1011.1 974.4
03 21.10 ЮВ 3 10 км 9/0
[Ci sp]
+26.0 +8.2 32 +26 +26 жарко 1010.2 973.4
06 21.10 ЮВ 2 10 км 9/0
[Ci sp]
+24.3 +9.4 39 +25 +25 комфорт 1011.0 973.8 +24.2
09 21.10 Ю 2 10 км 9/0
[Ci sp]
+32.6 +9.3 24 +32 +38 жарко 1012.7 975.6
15 21.10 ЮВ 1 10 км 9/0
[Ci sp]
+38.3 +4.9 13 +35 +44 очень
жарко
1008.5 971.8
18 21.10 В 1 8000 м пыль 9/0
[Ci sp]
+34.4 +8.1 20 +33 +33 жарко 1009.6 972.5 +39.0
21 21.10 В 1 10 км 9/0
[Ci sp]
+29.1 +7.4 26 +28 +38 жарко 1011.2 974.3
00 22.10 ЮВ 1 10 км 9/0
[Ci sp]
+26.7 +9.6 34 +27 +27 жарко 1011.0 974.2
03 22.10 В 1 10 км 9/0
[Ci sp]
+23.4 +14.3 57 +27 +27 душно 1009.9 972.9
06 22.10 штиль 0 8000 м пыль 9/0
[Ci sp]
+22.0 +12.6 55 +25 +25 комфорт 1011.2 973.9 +22.0
09 22.10 штиль 0 10 км 9/0
[Ac trans Ci sp]
+31.3 +7.3 22 +30 +38 жарко 1012.3 975.2
12 22.10 ЮВ 1 15 км 9/0
[Ci sp]
+37.5 +6.9 15 +35 +52 опасность
солнечного
удара
1010.5 973.6
15 22.10 В 1 15 км 9/0
[Ci sp]
+38.0 +3.4 12 +35 +44 очень
жарко
1007.6 970.7
18 22.10 штиль 0 10 км 9/0
[Ci sp]
+34.5 +8.8 21 +33 +33 жарко 1008.4 971.2 +39.1
21 22.10 ЮВ 1 8000 м пыль 9/0
[Ci sp]
+29.8 +9.1 28 +29 +29 жарко 1010.0 973.0

 

Местоположение метеостанции Ouahigouya (Буркина-Фасо): широта 13.57 долгота -2.42 высота над уровнем моря 336 м.

В архиве по умолчанию представлена погода в Ouahigouya за последнюю неделю. Архивные данные за месяц целиком и за предыдущие месяцы, начиная с января 2011 года, Вы можете получить, выбрав интересующий диапазон дат из раскрывающегося списка и нажав кнопку "Ввод!".

Внимание! Время в таблицах - всемирное. Для получения местного времени необходимо прибавить поправку, которая в Ouahigouya равна 0 ч.

Смотрите также архив погоды в соседних городах и на ближайших метеорологических станциях:

Погода в Ouagadougou (Буркина-Фасо) (167 км)
Погода в Dedougou (Буркина-Фасо) (168 км)
Погода в Mopti (Мали) (210 км)
Погода в Boromo (Буркина-Фасо) (210 км)
Погода в San (Мали) (262 км)
Погода в Dori (Буркина-Фасо) (263 км)
Погода в Po (Буркина-Фасо) (302 км)
Погода в Navrongo (Гана) (330 км)
Погода в Bobo-Dioulasso (Буркина-Фасо) (337 км)
Погода в Fada N`Gourma (Буркина-Фасо) (348 км)

Пояснения к столбцам:

Ветер - указаны скорость ветра в м/с - средняя за 10 мин, порывы в срок и между сроками (в фигурных скобках) и направление, откуда дует ветер: С - северный, СВ - северо-восточный, В - восточный, ЮВ - юго-восточный, Ю - южный, ЮЗ - юго-западный, З - западный, СЗ - северо-западный.
Видимость - горизонтальная дальность видимости в метрах или километрах. При видимости от 1 до 10 км при отсутствии осадков обычно наблюдается дымка, при ухудшении видимости до 1 км и менее - туман. В сухую погоду видимость может ухудшаться дымом, пылью или мглою.
Явления - указаны атмосферные явления, наблюдавшиеся в срок или в последний час перед сроком; фигурными скобками обозначены явления, наблюдавшиеся между сроками (за 1-3 часа до срока); квадратными скобками обозначены град или гололедные отложения с указанием их диаметра в мм.
Облачность - указаны через наклонную черту общая и нижняя облачность в баллах и высота нижней границы облаков в метрах; квадратными скобками обозначены формы облаков: Ci - перистые, Cs - перисто-слоистые, Cc - перисто-кучевые, Ac - высококучевые, As - высокослоистые, Sc - слоисто-кучевые, Ns - слоисто-дождевые, Cu - кучевые, Cb - кучево-дождевые. Подробнее классификацию облаков см. в Атласе облаков (PDF).
T - Температура воздуха - температура, измеренная на высоте 2 м над землей.
Td - Температура точки росы - температура, при понижении до которой содержащийся в воздухе водяной пар достигнет насыщения.
f - Относительная влажность воздуха - влажноcть воздуха, измеренная на высоте 2 м над землей.
Te - Эффективная температура - температура, которую ощущает одетый по сезону человек в тени. Характеристика душности погоды. При расчете учитывается влияние влажности воздуха и скорости ветра на теплоощущения человека.
Tes - Эффективная температура на солнце - температура, которую ощущает человек, с поправкой на солнечный нагрев. Характеристика знойности погоды. Зависит от высоты солнца над горизонтом, облачности и скорости ветра. Ночью, в пасмурную погоду, а также при ветре 12 м/с и более поправка равна нулю.
P - Атмосферное давление - приведенное к уровню моря атмосферное давление.
Po - Атмосферное давление - измеренное на уровне метеостанции атмосферное давление.
Tmin - Минимальная температура - минимум температуры воздуха на высоте 2 м над землей.
Tmax - Максимальная температура - максимум температуры воздуха на высоте 2 м над землей.
R - Количество осадков - Количество выпавших осадков за период времени, мм. При наведении курсора мыши на число - период времени, за который выпало указанное количество осадков.
R24 - Количество осадков - Количество выпавших осадков за 24 часа, мм.
S - Снежный покров - Высота снежного покрова, см. При наведении курсора мыши на число - состояние снежного покрова и степень покрытия местности в баллах.